WA1HRH Weather Reports


Display with metric or nautical units.
time (UTC)temp
F
wind
direction
speed
MPH
gust
MPH
rain 1hr
in
rain 24hr
in
rain mn
in
humidity
%
barometer
mb
20260504171508 48 295 0.0 0.0 0.00 0.17 0.17 89 1009.9
20260504081526 32 247 0.0 0.0 0.00 0.06 0.00 88 1010.1
20260504050020 30 247 0.0 0.0 0.00 0.10 0.00 85 1010.3
20260504044521 31 247 0.0 0.0 0.00 0.10 0.00 82 1010.4
20260504043033 32 247 0.0 0.0 0.00 0.11 0.00 81 1010.5
20260504041519 32 247 0.0 1.0 0.00 0.12 0.00 82 1010.4
20260504040022 32 247 0.0 0.0 0.00 0.13 0.00 82 1010.3
20260504034520 32 247 0.0 1.0 0.00 0.14 0.13 83 1010.3
20260504033015 32 247 0.0 2.0 0.00 0.15 0.13 83 1010.3
20260504031521 31 247 0.0 3.0 0.00 0.15 0.13 89 1010.3
20260504030009 31 247 0.0 0.0 0.00 0.16 0.13 90 1010.3
20260504024508 30 247 0.0 0.0 0.00 0.17 0.13 89 1010.2
20260504023010 31 247 0.0 1.0 0.00 0.19 0.13 88 1010.3
20260504021516 31 247 0.0 0.0 0.00 0.20 0.13 87 1010.5
20260504020023 31 247 0.0 0.0 0.00 0.21 0.13 85 1010.4
20260504014503 33 247 0.0 1.0 0.00 0.22 0.13 83 1010.4
20260504013027 34 247 0.0 0.0 0.00 0.23 0.13 83 1010.4
20260504011510 34 247 0.0 0.0 0.00 0.23 0.13 81 1010.5
20260504010020 35 247 0.0 0.0 0.00 0.23 0.13 78 1010.4
20260504004527 36 247 0.0 0.0 0.00 0.23 0.13 77 1010.3
20260504003006 37 247 0.0 0.0 0.00 0.23 0.13 75 1010.1
20260504001510 39 247 0.0 0.0 0.00 0.23 0.13 72 1010.2
20260504000015 40 247 0.0 0.0 0.00 0.23 0.13 70 1010.1
20260503234518 41 247 0.0 0.0 0.00 0.23 0.13 61 1010.0
20260503233022 42 247 0.0 3.0 0.00 0.23 0.13 57 1010.0
20260503231504 43 247 0.0 2.0 0.00 0.23 0.13 54 1009.9
20260503230008 43 247 0.0 3.0 0.00 0.23 0.13 63 1009.9
20260503224513 43 247 0.0 3.0 0.00 0.23 0.13 52 1009.8
20260503223019 43 167 0.0 4.0 0.00 0.23 0.13 53 1009.7
20260503221526 43 167 0.0 4.0 0.00 0.23 0.13 48 1009.7
20260503220006 44 268 0.0 1.0 0.00 0.23 0.13 51 1009.7
20260503214512 43 314 0.0 2.0 0.00 0.23 0.13 55 1009.7
20260503213015 43 314 0.0 8.0 0.00 0.23 0.13 52 1009.6
20260503211522 44 171 0.0 4.0 0.00 0.23 0.13 50 1009.7
20260503210024 44 347 0.0 3.0 0.00 0.23 0.13 47 1009.5
20260503204508 44 167 1.0 5.0 0.00 0.23 0.13 50 1009.5
20260503203035 44 253 2.0 8.0 0.00 0.24 0.13 49 1009.6
20260503201519 44 53 1.0 6.0 0.00 0.24 0.13 48 1009.5
20260503200026 44 110 0.0 10.0 0.00 0.24 0.13 53 1009.4
20260503194537 45 48 1.0 7.0 0.00 0.24 0.13 47 1009.3
20260503193014 44 35 0.0 9.0 0.00 0.26 0.13 58 1009.4
20260503191515 43 312 1.0 5.0 0.00 0.26 0.13 52 1009.5
20260503190033 43 134 1.0 10.0 0.00 0.26 0.13 55 1009.4
20260503184526 44 66 0.0 10.0 0.00 0.26 0.13 50 1009.4
20260503183026 45 78 1.0 6.0 0.00 0.26 0.13 48 1009.2
20260503181513 44 176 1.0 6.0 0.00 0.26 0.13 50 1009.4
20260503180020 44 2 1.0 9.0 0.00 0.26 0.13 53 1009.5
20260503174521 44 330 0.0 6.0 0.00 0.26 0.13 51 1009.4
20260503173024 45 91 1.0 6.0 0.00 0.26 0.13 51 1009.5